Thunderstorms From: 22-05-2018 15:00 Until: 23-05-2018 15:00 warning for: Thunderstorms Level: Yellow info button

Although rather usual in this region, locally or potentially dangerous phenomena are expected. (such as local winds, summer thunderstorms, rising streams or high waves) Be aware and pay attention to the latest weather updates, especially if you carry out activities exposed to weather or close to a stream or shoreline. 


Meteo18 Weather Cam more information Meteo18 Weather Cam


warning for Thunderstorms more information blitzortung!


Rain radar more information rain snow radar


Visit our other weather sites:

Template documentation
and downloads

And another site



Weather Underground History page Text

Daily Summary for February 9, 2017 Units:  English    Metric   Both
« Previous Day
Next Day »
Daily Weekly Monthly Yearly Custom
  High: Low: Average:
Temperature: TemperatureC °F 0.3 °F 3.4 °F
Dew Point: DewpointC °F -1.3 °F 1.6 °F
Humidity: Humidity % 67 % 88 %
Wind Speed: WindSpeedKMH mph 0.0 mph 6 mph
Wind Gust: WindSpeedGustKMH mph - -
Wind:- - SSE
Pressure: PressurehPa in 1018.8 in -
Precipitation: 0.0 in    
Historical Graphs
 
 
Tabular Data for February 9, 2017
Time Temperature Dew Point Pressure Wind Wind Speed Wind Gust Humidity Rainfall Rate (Hourly)
TemperatureC °F DewpointC °F PressurehPa in Calm     Humidity % HourlyPrecipMM in
00:02 3.7 °F 2.1 °F 1025.6 in North 8.0 mph 11.3 mph 89 % 0.0 in
00:07 3.6 °F 2.0 °F 1025.3 in NNW 3.2 mph 11.3 mph 89 % 0.0 in
00:12 3.6 °F 2.1 °F 1025.3 in NNE 4.8 mph 11.3 mph 90 % 0.0 in
00:17 3.6 °F 2.1 °F 1025.3 in NNW 6.4 mph 8.0 mph 90 % 0.0 in
00:22 3.7 °F 2.2 °F 1025.3 in NNW 9.7 mph 12.9 mph 90 % 0.0 in
00:28 3.8 °F 2.3 °F 1025.3 in NNE 4.8 mph 12.9 mph 90 % 0.0 in
00:37 3.9 °F 2.4 °F 1025.6 in NE 4.8 mph 12.9 mph 90 % 0.0 in
00:42 3.9 °F 2.4 °F 1025.6 in NNE 1.6 mph 12.9 mph 90 % 0.0 in
00:47 3.9 °F 2.4 °F 1025.6 in North 3.2 mph 12.9 mph 90 % 0.0 in
00:52 3.9 °F 2.4 °F 1025.6 in NNW 4.8 mph 11.3 mph 90 % 0.0 in
00:57 3.9 °F 2.4 °F 1025.6 in NE 3.2 mph 9.7 mph 90 % 0.0 in
01:02 3.9 °F 2.4 °F 1025.6 in Calm   9.7 mph 90 % 0.0 in
01:07 3.9 °F 2.4 °F 1025.6 in North 4.8 mph 9.7 mph 90 % 0.0 in
01:12 3.9 °F 2.4 °F 1025.6 in Calm   9.7 mph 90 % 0.0 in
01:17 3.9 °F 2.4 °F 1025.6 in NE 1.6 mph 8.0 mph 90 % 0.0 in
01:22 3.9 °F 2.4 °F 1025.3 in NNE 4.8 mph 8.0 mph 90 % 0.0 in
01:27 3.9 °F 2.4 °F 1025.3 in Calm   11.3 mph 90 % 0.0 in
01:32 3.9 °F 2.4 °F 1025.3 in NNW 3.2 mph 11.3 mph 90 % 0.0 in
01:37 3.9 °F 2.4 °F 1025.3 in NNW 4.8 mph 11.3 mph 90 % 0.0 in
01:42 3.9 °F 2.4 °F 1025.3 in NE 1.6 mph 9.7 mph 90 % 0.0 in
01:47 3.9 °F 2.4 °F 1025.3 in Calm   9.7 mph 90 % 0.0 in
01:52 3.8 °F 2.3 °F 1025.3 in Calm   9.7 mph 90 % 0.0 in
01:57 3.8 °F 2.5 °F 1025.3 in NNW 4.8 mph 9.7 mph 91 % 0.0 in
02:02 3.8 °F 2.5 °F 1025.3 in NNW 6.4 mph 9.7 mph 91 % 0.0 in
02:07 3.8 °F 2.5 °F 1025.3 in NW 4.8 mph 11.3 mph 91 % 0.0 in
02:17 3.8 °F 2.5 °F 1025.3 in North 3.2 mph 11.3 mph 91 % 0.0 in
02:22 3.8 °F 2.5 °F 1025.3 in WNW 3.2 mph 9.7 mph 91 % 0.0 in
02:27 3.8 °F 2.5 °F 1025.3 in North 6.4 mph 9.7 mph 91 % 0.0 in
02:32 3.8 °F 2.5 °F 1025.3 in NNW 4.8 mph 9.7 mph 91 % 0.0 in
02:37 3.7 °F 2.5 °F 1025.3 in NW 4.8 mph 9.7 mph 92 % 0.0 in
02:42 3.7 °F 2.5 °F 1025.3 in NW 4.8 mph 9.7 mph 92 % 0.0 in
02:47 3.7 °F 2.5 °F 1025.3 in North 6.4 mph 11.3 mph 92 % 0.0 in
02:52 3.7 °F 2.5 °F 1025.3 in NNW 1.6 mph 11.3 mph 92 % 0.0 in
02:57 3.7 °F 2.5 °F 1025.3 in North 4.8 mph 9.7 mph 92 % 0.0 in
03:02 3.7 °F 2.5 °F 1025.3 in NNW 3.2 mph 9.7 mph 92 % 0.0 in
03:07 3.7 °F 2.5 °F 1025.3 in WNW 1.6 mph 11.3 mph 92 % 0.0 in
03:12 3.7 °F 2.5 °F 1025.3 in NNE 1.6 mph 11.3 mph 92 % 0.0 in
03:17 3.7 °F 2.5 °F 1025.3 in NNW 3.2 mph 11.3 mph 92 % 0.0 in
03:22 3.7 °F 2.5 °F 1025.3 in North 3.2 mph 9.7 mph 92 % 0.0 in
03:27 3.7 °F 2.5 °F 1024.9 in North 4.8 mph 9.7 mph 92 % 0.0 in
03:32 3.7 °F 2.5 °F 1024.9 in North 9.7 mph 12.9 mph 92 % 0.0 in
03:37 3.7 °F 2.5 °F 1024.9 in NNW 4.8 mph 14.5 mph 92 % 0.0 in
03:42 3.7 °F 2.5 °F 1024.9 in NNW 3.2 mph 14.5 mph 92 % 0.0 in
03:47 3.7 °F 2.5 °F 1024.9 in NNW 11.3 mph 14.5 mph 92 % 0.0 in
03:52 3.7 °F 2.5 °F 1024.9 in NNE 3.2 mph 14.5 mph 92 % 0.0 in
03:57 3.7 °F 2.5 °F 1024.9 in NNW 12.9 mph 16.1 mph 92 % 0.0 in
04:02 3.7 °F 2.5 °F 1024.9 in Calm   17.7 mph 92 % 0.0 in
04:07 3.7 °F 2.5 °F 1024.9 in North 9.7 mph 17.7 mph 92 % 0.0 in
04:12 3.7 °F 2.5 °F 1024.6 in NNW 14.5 mph 17.7 mph 92 % 0.0 in
04:17 3.6 °F 2.4 °F 1024.6 in NNW 8.0 mph 17.7 mph 92 % 0.0 in
04:22 3.6 °F 2.6 °F 1024.6 in NNE 17.7 mph 17.7 mph 93 % 0.0 in
04:27 3.6 °F 2.6 °F 1024.6 in NW 8.0 mph 22.5 mph 93 % 0.0 in
04:32 3.6 °F 2.6 °F 1024.6 in North 11.3 mph 22.5 mph 93 % 0.0 in
04:37 3.5 °F 2.5 °F 1024.6 in North 17.7 mph 22.5 mph 93 % 0.0 in
04:42 3.5 °F 2.5 °F 1024.6 in North 9.7 mph 20.9 mph 93 % 0.0 in
04:47 3.5 °F 2.5 °F 1024.6 in NNW 6.4 mph 20.9 mph 93 % 0.0 in
04:52 3.4 °F 2.4 °F 1024.6 in NNW 14.5 mph 20.9 mph 93 % 0.0 in
04:57 3.4 °F 2.5 °F 1024.6 in NNW 9.7 mph 19.3 mph 94 % 0.0 in
05:02 3.3 °F 2.4 °F 1024.3 in NNW 6.4 mph 19.3 mph 94 % 0.0 in
05:07 3.3 °F 2.4 °F 1024.3 in North 8.0 mph 19.3 mph 94 % 0.0 in
05:12 3.3 °F 2.4 °F 1024.3 in NNW 4.8 mph 19.3 mph 94 % 0.0 in
05:17 3.3 °F 2.4 °F 1024.3 in NNE 6.4 mph 19.3 mph 94 % 0.0 in
05:22 3.2 °F 2.3 °F 1024.3 in NNW 8.0 mph 16.1 mph 94 % 0.0 in
05:27 3.2 °F 2.3 °F 1024.3 in NNE 11.3 mph 12.9 mph 94 % 0.0 in
05:32 3.2 °F 2.3 °F 1024.6 in NNW 8.0 mph 20.9 mph 94 % 0.0 in
05:37 3.1 °F 2.4 °F 1024.6 in NE 4.8 mph 20.9 mph 95 % 0.0 in
05:42 3.1 °F 2.4 °F 1024.6 in NNW 4.8 mph 17.7 mph 95 % 0.0 in
05:47 3.1 °F 2.4 °F 1024.6 in NW 4.8 mph 16.1 mph 95 % 0.0 in
05:52 3.1 °F 2.4 °F 1024.6 in North 4.8 mph 12.9 mph 95 % 0.0 in
05:57 3.1 °F 2.4 °F 1024.6 in NE 9.7 mph 12.9 mph 95 % 0.0 in
06:02 3.0 °F 2.3 °F 1024.6 in North 8.0 mph 12.9 mph 95 % 0.0 in
06:07 2.9 °F 2.2 °F 1024.3 in North 11.3 mph 20.9 mph 95 % 0.0 in
06:12 2.9 °F 2.3 °F 1024.3 in North 3.2 mph 20.9 mph 96 % 0.0 in
06:17 2.9 °F 2.3 °F 1024.3 in NW 6.4 mph 20.9 mph 96 % 0.0 in
06:22 2.9 °F 2.3 °F 1024.3 in NNW 8.0 mph 20.9 mph 96 % 0.0 in
06:27 2.9 °F 2.3 °F 1024.3 in North 6.4 mph 14.5 mph 96 % 0.0 in
06:32 2.9 °F 2.3 °F 1024.3 in NW 9.7 mph 14.5 mph 96 % 0.0 in
06:37 2.9 °F 2.3 °F 1024.3 in NNW 8.0 mph 14.5 mph 96 % 0.0 in
06:42 2.8 °F 2.2 °F 1024.3 in NE 6.4 mph 14.5 mph 96 % 0.0 in
06:47 2.8 °F 2.2 °F 1024.3 in North 8.0 mph 14.5 mph 96 % 0.0 in
06:52 2.8 °F 2.2 °F 1024.3 in SSE 1.6 mph 19.3 mph 96 % 0.0 in
06:57 2.8 °F 2.2 °F 1024.3 in North 8.0 mph 19.3 mph 96 % 0.0 in
07:02 2.8 °F 2.2 °F 1024.3 in WNW 3.2 mph 19.3 mph 96 % 0.0 in
07:12 2.8 °F 2.2 °F 1024.3 in NNE 9.7 mph 14.5 mph 96 % 0.0 in
07:17 2.8 °F 2.2 °F 1024.3 in NNW 11.3 mph 16.1 mph 96 % 0.0 in
07:22 2.7 °F 2.1 °F 1024.3 in NNW 9.7 mph 20.9 mph 96 % 0.0 in
07:27 2.7 °F 2.1 °F 1024.3 in NE 8.0 mph 20.9 mph 96 % 0.0 in
07:32 2.7 °F 2.1 °F 1024.3 in NNW 9.7 mph 20.9 mph 96 % 0.0 in
07:37 2.7 °F 2.3 °F 1024.3 in NNW 6.4 mph 17.7 mph 97 % 0.0 in
07:42 2.7 °F 2.3 °F 1024.3 in NW 6.4 mph 17.7 mph 97 % 0.0 in
07:47 2.7 °F 2.3 °F 1024.3 in NNW 8.0 mph 19.3 mph 97 % 0.0 in
07:52 2.7 °F 2.3 °F 1024.3 in NE 11.3 mph 22.5 mph 97 % 0.0 in
07:57 2.7 °F 2.3 °F 1024.3 in NNW 9.7 mph 22.5 mph 97 % 0.0 in
08:02 2.7 °F 2.3 °F 1024.3 in NW 9.7 mph 22.5 mph 97 % 0.0 in
08:07 2.7 °F 2.3 °F 1024.3 in North 16.1 mph 16.1 mph 97 % 0.0 in
08:12 2.6 °F 2.2 °F 1024.3 in NNE 12.9 mph 17.7 mph 97 % 0.0 in
08:17 2.6 °F 2.2 °F 1024.3 in North 11.3 mph 17.7 mph 97 % 0.0 in
08:22 2.6 °F 2.2 °F 1024.3 in NNE 4.8 mph 16.1 mph 97 % 0.0 in
08:27 2.6 °F 2.2 °F 1024.3 in NNE 12.9 mph 14.5 mph 97 % 0.0 in
08:32 2.6 °F 2.2 °F 1024.3 in NNE 1.6 mph 14.5 mph 97 % 0.0 in
08:37 2.6 °F 2.2 °F 1024.3 in NNW 6.4 mph 19.3 mph 97 % 0.0 in
08:42 2.6 °F 2.2 °F 1024.3 in North 11.3 mph 19.3 mph 97 % 0.0 in
08:47 2.6 °F 2.2 °F 1024.3 in NNW 9.7 mph 17.7 mph 97 % 0.0 in
08:52 2.6 °F 2.2 °F 1024.3 in NW 8.0 mph 17.7 mph 97 % 0.0 in
08:57 2.6 °F 2.2 °F 1024.3 in NNW 12.9 mph 14.5 mph 97 % 0.0 in
09:02 2.6 °F 2.2 °F 1024.3 in NNE 9.7 mph 14.5 mph 97 % 0.0 in
09:07 2.5 °F 2.1 °F 1024.3 in NNW 6.4 mph 17.7 mph 97 % 0.0 in
09:12 2.6 °F 2.2 °F 1024.3 in North 3.2 mph 16.1 mph 97 % 0.0 in
09:17 2.6 °F 2.2 °F 1024.3 in NNW 4.8 mph 16.1 mph 97 % 0.0 in
09:22 2.6 °F 2.2 °F 1024.3 in North 4.8 mph 16.1 mph 97 % 0.0 in
09:27 2.6 °F 2.2 °F 1024.3 in NE 3.2 mph 14.5 mph 97 % 0.0 in
09:32 2.6 °F 2.2 °F 1024.3 in NNE 11.3 mph 14.5 mph 97 % 0.0 in
09:37 2.6 °F 2.2 °F 1023.9 in NW 1.6 mph 16.1 mph 97 % 0.0 in
09:42 2.6 °F 2.2 °F 1023.9 in NE 1.6 mph 16.1 mph 97 % 0.0 in
09:47 2.6 °F 2.2 °F 1023.9 in NNW 3.2 mph 16.1 mph 97 % 0.0 in
09:52 2.7 °F 2.3 °F 1023.9 in NNW 8.0 mph 12.9 mph 97 % 0.0 in
09:57 2.6 °F 2.2 °F 1023.9 in NNE 16.1 mph 16.1 mph 97 % 0.0 in
10:02 2.6 °F 2.2 °F 1023.9 in Calm   12.9 mph 97 % 0.0 in
10:07 2.7 °F 2.3 °F 1023.9 in NE 11.3 mph 16.1 mph 97 % 0.0 in
10:12 2.7 °F 2.3 °F 1023.9 in NE 12.9 mph 20.9 mph 97 % 0.0 in
10:17 2.7 °F 2.3 °F 1023.6 in North 17.7 mph 20.9 mph 97 % 0.0 in
10:22 2.7 °F 2.3 °F 1023.6 in NE 6.4 mph 20.9 mph 97 % 0.0 in
10:27 2.7 °F 2.3 °F 1023.6 in NNW 9.7 mph 19.3 mph 97 % 0.0 in
10:32 2.7 °F 2.3 °F 1023.6 in NNE 9.7 mph 19.3 mph 97 % 0.0 in
10:37 2.7 °F 2.3 °F 1023.6 in North 9.7 mph 17.7 mph 97 % 0.0 in
10:42 2.7 °F 2.3 °F 1023.6 in Calm   19.3 mph 97 % 0.0 in
10:47 2.7 °F 2.3 °F 1023.6 in NNW 4.8 mph 19.3 mph 97 % 0.0 in
10:52 2.7 °F 2.3 °F 1023.6 in NE 4.8 mph 17.7 mph 97 % 0.0 in
10:57 2.7 °F 2.3 °F 1023.6 in NE 3.2 mph 11.3 mph 97 % 0.0 in
11:02 2.7 °F 2.3 °F 1023.6 in North 6.4 mph 12.9 mph 97 % 0.0 in
11:07 2.8 °F 2.4 °F 1023.6 in NE 8.0 mph 12.9 mph 97 % 0.0 in
11:12 2.8 °F 2.4 °F 1023.6 in WNW 1.6 mph 12.9 mph 97 % 0.0 in
11:17 2.8 °F 2.4 °F 1023.6 in NNE 1.6 mph 11.3 mph 97 % 0.0 in
11:22 2.9 °F 2.5 °F 1023.2 in North 4.8 mph 11.3 mph 97 % 0.0 in
11:27 2.9 °F 2.5 °F 1023.6 in NW 4.8 mph 11.3 mph 97 % 0.0 in
11:32 3.0 °F 2.6 °F 1023.2 in NNW 4.8 mph 11.3 mph 97 % 0.0 in
11:37 3.1 °F 2.7 °F 1023.2 in Calm   11.3 mph 97 % 0.0 in
11:42 3.2 °F 2.8 °F 1023.2 in NE 4.8 mph 11.3 mph 97 % 0.0 in
11:47 3.2 °F 2.8 °F 1023.2 in NNW 8.0 mph 12.9 mph 97 % 0.0 in
11:52 3.2 °F 2.6 °F 1023.2 in NNW 4.8 mph 12.9 mph 96 % 0.0 in
11:57 3.3 °F 2.7 °F 1023.2 in NNE 6.4 mph 12.9 mph 96 % 0.0 in
12:02 3.3 °F 2.6 °F 1023.2 in NNE 8.0 mph 12.9 mph 95 % 0.0 in
12:07 3.5 °F 2.8 °F 1023.2 in North 8.0 mph 14.5 mph 95 % 0.0 in
12:12 3.6 °F 2.7 °F 1023.2 in NNE 9.7 mph 14.5 mph 94 % 0.0 in
12:17 3.6 °F 2.7 °F 1022.9 in North 6.4 mph 12.9 mph 94 % 0.0 in
12:22 3.7 °F 2.5 °F 1022.9 in North 6.4 mph 14.5 mph 92 % 0.0 in
12:27 3.8 °F 2.6 °F 1022.9 in NNE 4.8 mph 14.5 mph 92 % 0.0 in
12:32 3.9 °F 2.6 °F 1022.9 in NE 4.8 mph 14.5 mph 91 % 0.0 in
12:37 4.0 °F 2.5 °F 1022.6 in NNW 9.7 mph 14.5 mph 90 % 0.0 in
12:47 3.9 °F 2.1 °F 1022.6 in NNW 4.8 mph 17.7 mph 88 % 0.0 in
12:52 4.1 °F 2.1 °F 1022.6 in NNE 11.3 mph 17.7 mph 87 % 0.0 in
12:57 4.2 °F 2.1 °F 1022.2 in NNE 8.0 mph 16.1 mph 86 % 0.0 in
13:02 4.3 °F 2.0 °F 1022.2 in NNE 6.4 mph 16.1 mph 85 % 0.0 in
13:07 4.4 °F 1.9 °F 1022.2 in North 11.3 mph 16.1 mph 84 % 0.0 in
13:12 4.6 °F 2.3 °F 1022.2 in NNW 6.4 mph 12.9 mph 85 % 0.0 in
13:17 4.6 °F 2.1 °F 1022.2 in NNE 11.3 mph 12.9 mph 84 % 0.0 in
13:22 4.6 °F 2.0 °F 1022.2 in NNE 9.7 mph 14.5 mph 83 % 0.0 in
13:27 4.7 °F 1.9 °F 1022.2 in NNE 9.7 mph 16.1 mph 82 % 0.0 in
13:32 4.8 °F 2.0 °F 1021.9 in NW 3.2 mph 16.1 mph 82 % 0.0 in
13:37 5.1 °F 2.5 °F 1021.9 in NNW 9.7 mph 16.1 mph 83 % 0.0 in
13:42 4.9 °F 2.1 °F 1021.9 in North 3.2 mph 16.1 mph 82 % 0.0 in
13:47 4.9 °F 2.1 °F 1021.9 in NE 3.2 mph 16.1 mph 82 % 0.0 in
13:52 5.0 °F 2.2 °F 1021.9 in NNE 3.2 mph 16.1 mph 82 % 0.0 in
13:57 5.4 °F 2.6 °F 1021.9 in NW 8.0 mph 14.5 mph 82 % 0.0 in
14:02 5.4 °F 2.4 °F 1021.9 in North 11.3 mph 12.9 mph 81 % 0.0 in
14:07 5.2 °F 1.9 °F 1021.9 in North 11.3 mph 12.9 mph 79 % 0.0 in
14:12 5.2 °F 2.0 °F 1021.6 in NNE 8.0 mph 19.3 mph 80 % 0.0 in
14:17 5.6 °F 2.6 °F 1021.6 in North 1.6 mph 19.3 mph 81 % 0.0 in
14:22 5.8 °F 1.7 °F 1021.6 in NNE 6.4 mph 14.5 mph 75 % 0.0 in
14:27 5.7 °F 2.0 °F 1021.6 in NE 9.7 mph 16.1 mph 77 % 0.0 in
14:32 5.9 °F 2.2 °F 1021.6 in NNW 9.7 mph 16.1 mph 77 % 0.0 in
14:37 6.1 °F 2.7 °F 1021.6 in NNW 6.4 mph 16.1 mph 79 % 0.0 in
14:42 5.9 °F 2.2 °F 1021.2 in NNW 6.4 mph 16.1 mph 77 % 0.0 in
14:47 5.9 °F 2.2 °F 1021.2 in North 16.1 mph 16.1 mph 77 % 0.0 in
14:52 6.0 °F 2.1 °F 1021.2 in NNW 6.4 mph 17.7 mph 76 % 0.0 in
14:57 6.2 °F 2.1 °F 1021.2 in NNW 8.0 mph 17.7 mph 75 % 0.0 in
15:02 6.4 °F 1.5 °F 1021.2 in NE 6.4 mph 17.7 mph 71 % 0.0 in
15:07 6.4 °F 2.1 °F 1021.2 in NNE 12.9 mph 14.5 mph 74 % 0.0 in
15:12 6.3 °F 1.8 °F 1021.2 in NNE 4.8 mph 17.7 mph 73 % 0.0 in
15:17 6.2 °F 1.9 °F 1020.9 in NNE 9.7 mph 17.7 mph 74 % 0.0 in
15:22 6.1 °F 1.6 °F 1020.9 in ENE 4.8 mph 22.5 mph 73 % 0.0 in
15:27 6.1 °F 1.6 °F 1020.9 in NNE 3.2 mph 22.5 mph 73 % 0.0 in
15:32 6.4 °F 1.7 °F 1020.9 in North 6.4 mph 22.5 mph 72 % 0.0 in
15:37 6.4 °F 1.1 °F 1020.9 in NNE 8.0 mph 12.9 mph 69 % 0.0 in
15:42 6.4 °F 1.5 °F 1020.9 in ENE 8.0 mph 16.1 mph 71 % 0.0 in
15:47 6.3 °F 1.2 °F 1020.9 in NNE 11.3 mph 22.5 mph 70 % 0.0 in
15:52 6.2 °F 1.3 °F 1020.5 in NE 8.0 mph 22.5 mph 71 % 0.0 in
15:57 6.2 °F 1.3 °F 1020.5 in ENE 4.8 mph 22.5 mph 71 % 0.0 in
16:02 6.4 °F 1.3 °F 1020.5 in NNE 6.4 mph 17.7 mph 70 % 0.0 in
16:07 6.4 °F 1.1 °F 1020.5 in NNE 4.8 mph 14.5 mph 69 % 0.0 in
16:12 6.4 °F 1.1 °F 1020.5 in NE 11.3 mph 17.7 mph 69 % 0.0 in
16:17 6.3 °F 0.6 °F 1020.5 in NE 16.1 mph 17.7 mph 67 % 0.0 in
16:22 6.4 °F 0.9 °F 1020.5 in NNE 6.4 mph 19.3 mph 68 % 0.0 in
16:27 6.5 °F 1.4 °F 1020.5 in NNE 12.9 mph 19.3 mph 70 % 0.0 in
16:32 6.6 °F 1.5 °F 1020.5 in NE 8.0 mph 19.3 mph 70 % 0.0 in
16:37 6.4 °F 1.5 °F 1020.5 in NNW 6.4 mph 17.7 mph 71 % 0.0 in
16:42 6.3 °F 1.2 °F 1020.2 in NNE 9.7 mph 19.3 mph 70 % 0.0 in
16:47 6.3 °F 1.2 °F 1020.2 in NNE 6.4 mph 19.3 mph 70 % 0.0 in
16:52 6.3 °F 1.2 °F 1020.2 in East 4.8 mph 19.3 mph 70 % 0.0 in
16:57 6.4 °F 1.5 °F 1020.2 in NNE 6.4 mph 19.3 mph 71 % 0.0 in
17:02 6.3 °F 1.6 °F 1020.2 in NW 4.8 mph 14.5 mph 72 % 0.0 in
17:07 6.1 °F 2.2 °F 1020.2 in ENE 9.7 mph 20.9 mph 76 % 0.0 in
17:12 5.8 °F 2.1 °F 1020.2 in East 9.7 mph 20.9 mph 77 % 0.0 in
17:17 5.7 °F 2.0 °F 1020.2 in NNE 3.2 mph 20.9 mph 77 % 0.0 in
17:22 5.6 °F 2.1 °F 1020.2 in East 6.4 mph 14.5 mph 78 % 0.0 in
17:32 5.3 °F 1.8 °F 1020.2 in NE 6.4 mph 12.9 mph 78 % 0.0 in
17:42 5.1 °F 1.9 °F 1020.2 in ENE 9.7 mph 11.3 mph 80 % 0.0 in
17:47 4.9 °F 1.9 °F 1020.2 in ENE 4.8 mph 12.9 mph 81 % 0.0 in
17:52 4.7 °F 1.9 °F 1020.2 in NE 4.8 mph 12.9 mph 82 % 0.0 in
17:57 4.6 °F 2.0 °F 1020.2 in ENE 4.8 mph 14.5 mph 83 % 0.0 in
18:02 4.4 °F 1.8 °F 1020.2 in NE 3.2 mph 17.7 mph 83 % 0.0 in
18:07 4.2 °F 1.7 °F 1020.2 in ENE 4.8 mph 17.7 mph 84 % 0.0 in
18:12 4.0 °F 1.5 °F 1020.2 in NNE 4.8 mph 17.7 mph 84 % 0.0 in
18:17 3.8 °F 1.3 °F 1020.2 in NE 8.0 mph 14.5 mph 84 % 0.0 in
18:22 3.7 °F 1.2 °F 1020.2 in ENE 3.2 mph 14.5 mph 84 % 0.0 in
18:27 3.5 °F 1.1 °F 1020.2 in NNE 1.6 mph 14.5 mph 84 % 0.0 in
18:32 3.3 °F 0.9 °F 1020.2 in NE 3.2 mph 14.5 mph 84 % 0.0 in
18:37 3.2 °F 0.8 °F 1020.2 in Calm   11.3 mph 84 % 0.0 in
18:42 3.1 °F 0.8 °F 1020.2 in NE 1.6 mph 11.3 mph 85 % 0.0 in
18:47 3.0 °F 0.7 °F 1020.2 in NE 1.6 mph 9.7 mph 85 % 0.0 in
18:52 2.9 °F 0.6 °F 1020.2 in East 1.6 mph 8.0 mph 85 % 0.0 in
18:57 2.8 °F 0.5 °F 1020.2 in Calm   6.4 mph 85 % 0.0 in
19:02 2.7 °F 0.4 °F 1020.2 in ENE 1.6 mph 6.4 mph 85 % 0.0 in
19:07 2.7 °F 0.4 °F 1020.2 in Calm   6.4 mph 85 % 0.0 in
19:12 2.6 °F 0.3 °F 1020.2 in Calm   9.7 mph 85 % 0.0 in
19:17 2.4 °F 0.3 °F 1020.2 in Calm   9.7 mph 86 % 0.0 in
19:22 2.4 °F 0.3 °F 1020.5 in NNE 1.6 mph 9.7 mph 86 % 0.0 in
19:27 2.4 °F 0.3 °F 1020.5 in NE 4.8 mph 6.4 mph 86 % 0.0 in
19:32 2.5 °F 0.2 °F 1020.5 in NNE 6.4 mph 8.0 mph 85 % 0.0 in
19:37 2.5 °F 0.2 °F 1020.5 in North 1.6 mph 8.0 mph 85 % 0.0 in
19:42 2.4 °F 0.3 °F 1020.5 in NE 4.8 mph 8.0 mph 86 % 0.0 in
19:47 2.4 °F 0.3 °F 1020.5 in NNE 4.8 mph 8.0 mph 86 % 0.0 in
19:52 2.3 °F 0.2 °F 1020.2 in NE 4.8 mph 6.4 mph 86 % 0.0 in
19:57 2.4 °F 0.3 °F 1020.2 in NE 8.0 mph 9.7 mph 86 % 0.0 in
20:02 2.4 °F 0.1 °F 1020.2 in NE 3.2 mph 9.7 mph 85 % 0.0 in
20:07 2.4 °F 0.1 °F 1020.2 in NE 6.4 mph 11.3 mph 85 % 0.0 in
20:12 2.4 °F 0.1 °F 1020.2 in NNE 8.0 mph 11.3 mph 85 % 0.0 in
20:17 2.4 °F 0.1 °F 1020.2 in NE 4.8 mph 11.3 mph 85 % 0.0 in
20:22 2.3 °F 0.0 °F 1020.2 in Calm   11.3 mph 85 % 0.0 in
20:27 2.2 °F 0.1 °F 1020.2 in NNE 1.6 mph 9.7 mph 86 % 0.0 in
20:32 2.1 °F 0.0 °F 1019.9 in North 1.6 mph 6.4 mph 86 % 0.0 in
20:37 2.0 °F 0.1 °F 1019.9 in Calm   4.8 mph 87 % 0.0 in
20:42 2.0 °F 0.1 °F 1019.9 in NNE 4.8 mph 6.4 mph 87 % 0.0 in
20:47 2.1 °F 0.2 °F 1019.9 in NNE 6.4 mph 6.4 mph 87 % 0.0 in
20:52 2.3 °F 0.2 °F 1019.9 in NNE 6.4 mph 11.3 mph 86 % 0.0 in
20:57 2.4 °F 0.1 °F 1019.9 in NNE 11.3 mph 14.5 mph 85 % 0.0 in
21:02 2.4 °F 0.1 °F 1019.9 in NNE 8.0 mph 14.5 mph 85 % 0.0 in
21:07 2.4 °F 0.1 °F 1019.9 in NNE 9.7 mph 14.5 mph 85 % 0.0 in
21:12 2.4 °F 0.1 °F 1019.9 in NNE 3.2 mph 14.5 mph 85 % 0.0 in
21:17 2.3 °F 0.0 °F 1019.9 in NNE 6.4 mph 14.5 mph 85 % 0.0 in
21:22 2.3 °F 0.0 °F 1019.5 in NNE 8.0 mph 14.5 mph 85 % 0.0 in
21:27 2.2 °F -0.1 °F 1019.9 in NNE 6.4 mph 12.9 mph 85 % 0.0 in
21:32 2.2 °F -0.1 °F 1019.5 in NE 6.4 mph 12.9 mph 85 % 0.0 in
21:37 2.2 °F -0.1 °F 1019.5 in NE 8.0 mph 12.9 mph 85 % 0.0 in
21:42 2.1 °F -0.2 °F 1019.5 in North 3.2 mph 11.3 mph 85 % 0.0 in
21:47 2.0 °F -0.1 °F 1019.5 in NE 4.8 mph 11.3 mph 86 % 0.0 in
21:52 1.9 °F -0.2 °F 1019.5 in NNE 3.2 mph 11.3 mph 86 % 0.0 in
21:57 1.8 °F -0.3 °F 1019.5 in NNE 3.2 mph 9.7 mph 86 % 0.0 in
22:02 1.7 °F -0.4 °F 1019.5 in NNE 1.6 mph 8.0 mph 86 % 0.0 in
22:07 1.6 °F -0.3 °F 1019.5 in NNE 3.2 mph 9.7 mph 87 % 0.0 in
22:12 1.5 °F -0.4 °F 1019.2 in NNE 6.4 mph 9.7 mph 87 % 0.0 in
22:17 1.4 °F -0.5 °F 1019.5 in NNW 3.2 mph 8.0 mph 87 % 0.0 in
22:22 1.4 °F -0.4 °F 1019.2 in North 8.0 mph 9.7 mph 88 % 0.0 in
22:27 1.4 °F -0.5 °F 1019.2 in Calm   12.9 mph 87 % 0.0 in
22:32 1.3 °F -0.6 °F 1019.2 in NNE 6.4 mph 12.9 mph 87 % 0.0 in
22:37 1.2 °F -0.6 °F 1019.2 in NNE 1.6 mph 12.9 mph 88 % 0.0 in
22:42 1.1 °F -0.7 °F 1019.2 in North 1.6 mph 11.3 mph 88 % 0.0 in
22:47 1.0 °F -0.8 °F 1019.2 in North 3.2 mph 8.0 mph 88 % 0.0 in
22:52 0.9 °F -0.9 °F 1019.2 in NE 1.6 mph 12.9 mph 88 % 0.0 in
22:57 0.8 °F -1.0 °F 1019.2 in North 1.6 mph 12.9 mph 88 % 0.0 in
23:02 0.7 °F -0.9 °F 1019.2 in NNE 4.8 mph 12.9 mph 89 % 0.0 in
23:07 0.7 °F -0.9 °F 1019.2 in Calm   8.0 mph 89 % 0.0 in
23:12 0.6 °F -1.0 °F 1019.2 in North 3.2 mph 6.4 mph 89 % 0.0 in
23:17 0.6 °F -1.0 °F 1019.2 in NE 3.2 mph 6.4 mph 89 % 0.0 in
23:22 0.5 °F -1.1 °F 1019.2 in ENE 1.6 mph 6.4 mph 89 % 0.0 in
23:27 0.5 °F -1.1 °F 1019.2 in NNW 4.8 mph 6.4 mph 89 % 0.0 in
23:32 0.4 °F -1.2 °F 1018.8 in NNW 4.8 mph 6.4 mph 89 % 0.0 in
23:37 0.4 °F -1.2 °F 1018.8 in NE 3.2 mph 6.4 mph 89 % 0.0 in
23:42 0.3 °F -1.1 °F 1019.2 in Calm   4.8 mph 90 % 0.0 in
23:47 0.3 °F -1.3 °F 1019.2 in North 1.6 mph 4.8 mph 89 % 0.0 in
23:57 0.3 °F -1.3 °F 1018.8 in North 1.6 mph 6.4 mph 89 % 0.0 in
Meteo18
Compliments of Weather Underground - 4 mb

Script developed by  Jim McMurry - jmcmurry@mwt.net Adapted for the template by  Wim van der Kuil - Leuven-Template.eu

You find our weather info also at:

European Weather Network

Weather Underground

Equipment we use:

Weather-station
Davis Vue

Weather-program
Meteobridge

Weather-server
Raspberry PI 2 B+

Provider
1 and 1

Davis Vue

Meteobridge

Raspberry PI 2 B+

1 and 1